Location: Contre
(49.7477°N, 2.0963°E)
Time: 09:26:03
(UTC+00:00)

METEOR 2-5 DEB - Pass Details

Date: 24 February 2024
Orbit: 788 x 800 km, 81.2° (Epoch: 09 April)

Event Time Altitude Azimuth Distance (km) Brightness Sun altitude
Rises 05:55:56 0° 166° (SSE) 3,273 ? -8.8°
Reaches altitude 10° 05:58:26 10° 158° (SSE) 2,351 ? -8.4°
Maximum altitude 06:03:17 38° 92° (E) 1,204 ? -7.6°
Drops below altitude 10° 06:08:11 10° 26° (NNE) 2,376 ? -6.8°
Sets 06:10:42 0° 19° (NNE) 3,313 ? -6.4°
